Wind_Speed
6 7 4 2 6 6 4 3 2 4 5 5 5 6 9 12 14 15 17 16 14 13 13 14 14 14 15 16 14 16 16 14 14 12 8 11 11 10 10 9 10 10 10
6 7 4 1 4 5 5 5 5 6 7 6 6 5 6 10 13 14 16 15 14 14 11 10 11 13 13 14 13 14 14 15 15 12 10 10 10 10 12 12 11 11 11
8 6 6 2 3 5 5 7 8 9 9 10 10 10 8 8 10 14 16 16 15 13 12 12 10 10 11 13 12 13 14 15 13 11 13 9 12 13 13 13 14 13 15
9 7 7 6 4 5 6 9 11 12 13 12 12 11 12 13 13 13 15 16 16 15 15 13 11 11 12 11 11 12 14 14 16 14 15 14 14 13 15 15 14 13 17
11 9 7 8 7 5 7 10 12 14 13 13 17 20 21 17 14 13 16 16 17 17 16 14 13 12 12 12 13 13 14 14 14 15 16 16 16 16 14 17 15 14 16
14 12 9 9 8 7 8 11 13 13 12 11 17 24 21 18 15 15 14 17 17 17 15 15 14 13 12 12 12 13 13 13 13 13 14 14 18 15 19 18 17 17 17
15 12 11 9 9 8 6 6 3 2 4 8 16 17 16 20 16 18 15 15 17 17 16 15 15 14 14 13 13 12 13 13 13 14 16 17 17 17 19 20 16 17 23
16 13 12 11 10 9 5 4 5 5 7 11 16 20 16 19 20 22 19 14 16 17 17 16 16 15 14 14 13 12 12 13 14 15 15 16 15 16 14 20 17 13 18
16 15 15 13 11 11 8 8 9 9 8 11 15 18 22 12 21 19 19 14 15 17 18 17 16 16 16 15 15 15 14 15 15 16 16 15 15 16 16 18 18 20 20
14 17 16 14 14 12 12 13 11 10 11 12 13 14 19 19 11 17 21 17 16 15 17 18 18 17 17 17 17 17 17 17 17 17 17 18 18 17 18 19 20 20 18
15 16 17 18 17 16 15 13 12 11 12 13 13 13 14 16 14 12 18 16 14 15 12 15 18 18 18 18 18 18 18 17 17 17 17 17 17 18 19 19 21 21 22
25 25 20 20 20 20 18 15 15 11 11 12 14 12 13 14 13 10 5 16 18 19 14 12 12 13 15 17 17 16 16 16 16 18 19 19 19 20 20 21 21 23 24
28 32 35 24 22 23 21 18 17 14 13 14 14 15 15 15 14 10 7 9 19 20 14 13 15 14 16 15 16 16 16 16 18 18 20 22 22 23 23 21 23 23 24
27 28 36 23 23 24 22 20 20 18 17 16 16 17 19 19 17 14 12 9 6 16 23 26 23 20 19 17 16 14 16 16 18 20 21 24 26 25 23 23 24 25 25
31 27 37 35 26 23 23 22 22 19 18 19 19 22 21 21 22 19 17 20 18 16 19 22 27 32 31 27 28 29 30 29 26 24 26 28 29 31 26 25 28 28 27
24 28 27 30 34 26 24 22 21 19 19 21 20 23 24 19 19 19 18 20 23 24 28 26 26 27 29 32 37 33 33 32 30 33 31 29 30 32 32 30 29 29 29
25 23 27 30 24 23 23 21 20 20 20 22 21 21 20 17 15 15 16 17 18 23 27 27 28 34 29 31 31 35 40 35 36 38 33 27 34 34 35 32 32 31 30
25 27 27 23 21 18 19 19 19 20 21 23 20 19 16 14 13 11 11 12 15 18 21 25 28 34 32 30 31 34 34 39 35 34 36 36 37 41 36 31 29 31 31
21 17 12 12 13 13 16 19 20 18 18 19 20 19 15 14 13 13 13 12 12 12 13 16 21 24 26 28 31 33 31 28 29 33 32 40 44 34 39 32 34 35 32
10 12 11 9 13 15 16 16 13 13 13 12 14 11 19 16 17 15 16 15 15 15 15 15 16 17 19 21 24 29 29 28 31 32 30 29 29 34 36 34 37 38 34
8 10 11 14 17 20 20 18 14 14 14 15 18 19 21 19 18 17 16 17 17 18 19 18 18 19 21 22 23 24 25 26 29 30 31 31 28 32 34 36 41 41 36
16 18 18 18 19 18 19 19 17 16 17 17 18 20 21 22 22 20 19 19 19 19 20 19 19 20 23 25 28 29 29 31 31 31 27 27 28 29 29 36 37 47 49
13 14 15 16 18 18 17 17 13 10 13 12 14 18 23 19 20 19 20 20 20 21 22 22 22 24 26 27 31 32 32 33 36 35 35 34 34 32 31 30 35 39 39
12 13 14 16 17 17 17 13 12 15 18 19 17 15 15 16 17 17 18 21 24 24 23 22 25 27 30 31 31 33 33 33 39 43 42 40 40 38 41 38 33 38 39
9 10 10 10 10 10 11 12 14 13 11 13 12 13 13 15 18 21 22 24 26 26 26 27 25 25 25 24 24 27 30 32 33 29 32 30 32 37 37 37 39 39 38
4 3 2 1 1 2 3 5 7 8 9 8 10 11 15 15 14 17 17 15 14 14 14 17 18 19 19 22 21 20 21 23 24 24 24 25 28 30 31 34 36 37 36
Wind_Direction
343 356 2 249 218 217 232 268 307 332 349 7 341 304 276 260 252 252 257 263 261 265 265 261 257 251 248 244 246 241 237 246 256 252 251 240 255 247 244 253 261 253 250
333 328 360 303 243 243 256 279 296 311 320 335 343 335 300 279 268 260 255 253 253 253 259 262 260 251 244 243 243 240 240 247 249 244 256 252 255 255 249 257 259 257 253
327 305 311 308 247 252 266 280 287 292 295 309 319 324 323 301 278 266 259 251 248 251 251 247 247 256 249 240 243 243 248 251 246 231 247 242 244 252 260 256 256 266 262
311 291 290 296 291 272 276 290 296 295 300 302 296 315 316 306 297 277 263 257 252 252 254 256 252 252 251 247 245 246 249 250 240 234 248 243 247 255 242 260 269 254 245
300 296 287 289 276 289 301 305 300 292 291 297 296 288 291 283 281 281 268 257 253 250 253 257 258 256 253 250 248 246 244 246 248 240 243 240 245 252 253 241 256 237 271
292 293 279 283 285 298 308 313 309 300 293 303 314 293 284 282 273 271 273 259 254 252 251 253 256 255 251 246 242 244 245 244 244 249 252 256 246 242 253 255 253 253 251
279 281 270 274 281 284 304 310 353 356 337 336 340 327 285 271 271 266 267 262 261 253 249 248 246 245 243 240 238 241 246 250 252 254 258 257 255 255 253 247 255 233 245
277 268 263 271 276 282 284 265 282 318 336 339 347 347 311 277 271 264 250 263 253 249 245 244 244 240 238 239 242 245 253 260 265 265 262 259 256 256 239 251 258 248 254
274 260 254 263 271 270 264 256 269 297 321 343 347 355 11 304 284 250 243 256 259 248 245 241 243 242 240 242 248 253 260 263 263 265 265 263 259 257 253 253 253 251 257
261 260 253 258 264 264 272 263 262 287 308 326 337 341 351 352 318 250 252 250 254 256 252 244 243 243 244 248 253 259 260 259 261 260 258 260 258 259 258 257 256 257 251
248 252 252 255 258 257 261 265 267 278 298 305 319 335 340 349 352 305 243 231 260 254 255 253 251 251 251 251 253 257 262 266 267 260 258 258 261 263 261 258 259 257 258
251 255 246 253 254 254 258 262 268 273 281 300 311 321 329 332 348 354 284 269 237 260 254 252 255 253 258 259 256 257 260 263 265 265 262 260 262 263 262 259 256 254 252
276 265 248 245 252 251 252 259 267 274 284 294 302 309 311 317 321 321 303 268 251 256 252 268 256 254 271 271 265 259 259 262 268 269 267 263 261 261 262 262 260 258 256
272 263 229 230 248 246 249 256 262 269 281 285 292 298 299 303 301 286 256 268 245 243 257 254 257 258 250 255 260 273 278 279 276 270 272 274 271 270 273 267 265 263 259
257 263 221 240 244 250 251 256 263 270 277 282 292 297 299 300 299 288 267 255 257 259 253 253 249 253 258 260 262 272 280 278 283 284 279 277 277 276 268 268 268 267 262
244 230 236 234 234 251 255 256 262 268 274 283 292 295 297 298 295 286 277 264 258 264 264 263 260 264 272 274 266 269 273 282 279 282 271 270 269 271 273 270 267 267 265
228 219 224 216 246 247 250 253 261 269 279 286 291 295 295 299 299 293 288 280 272 263 257 258 270 268 275 271 262 270 278 283 277 278 268 261 266 266 271 272 274 271 266
212 211 229 233 230 235 248 260 270 278 288 294 290 291 289 293 295 298 299 292 285 280 275 266 266 260 267 275 267 275 277 266 279 285 277 264 259 258 246 254 265 271 270
204 197 199 219 238 252 262 270 279 286 288 289 294 293 298 303 303 309 316 319 322 318 305 295 285 282 277 276 272 269 277 273 271 275 284 272 265 266 269 256 271 262 267
186 191 209 251 277 278 280 283 283 280 283 283 287 286 301 304 308 317 314 309 309 311 314 316 310 309 295 288 292 279 280 278 287 296 297 292 292 268 274 282 268 262 258
331 301 289 281 274 275 280 277 268 264 266 271 278 283 288 293 293 296 295 292 296 302 304 299 295 300 300 294 290 291 295 296 297 299 295 286 281 277 277 282 268 265 253
276 275 273 267 266 269 265 266 266 265 266 270 272 275 279 286 287 285 286 290 294 293 292 298 296 291 293 292 294 292 290 293 300 302 299 293 287 271 275 272 270 278 247
271 268 265 265 264 262 260 257 259 260 263 258 250 263 281 282 280 280 282 286 292 297 300 299 296 295 293 293 292 291 290 289 296 294 292 291 289 288 281 277 281 281 278
280 274 270 266 260 258 257 254 248 247 246 254 260 267 266 276 280 287 287 293 294 293 294 297 299 297 294 297 295 287 285 288 294 295 285 281 284 285 287 280 280 276 275
285 280 275 269 260 248 242 244 245 255 253 262 269 279 275 275 282 292 293 293 303 300 296 299 300 299 297 304 302 298 295 299 301 301 294 293 290 282 282 286 288 286 280
314 313 315 310 266 225 216 224 235 244 254 256 265 267 273 294 291 295 296 309 327 326 318 318 314 313 310 313 321 324 320 321 321 322 318 304 299 297 296 290 287 288 289
Height
3159 3158 3157 3156 3156 3156 3156 3157 3156 3156 3155 3153 3153 3153 3153 3153 3154 3154 3153 3153 3153 3153 3153 3153 3154 3155 3155 3155 3155 3157 3158 3158 3159 3158 3158 3160 3161 3162 3164 3165 3166 3165 3166
3159 3158 3156 3155 3155 3155 3155 3155 3155 3154 3153 3152 3152 3151 3151 3151 3150 3151 3150 3150 3150 3151 3150 3150 3151 3151 3152 3152 3153 3154 3154 3156 3156 3156 3156 3157 3159 3160 3161 3162 3163 3164 3164
3158 3157 3156 3155 3155 3155 3154 3153 3152 3151 3151 3151 3150 3149 3148 3148 3148 3148 3148 3148 3148 3148 3148 3149 3148 3149 3149 3150 3150 3151 3152 3153 3154 3155 3155 3155 3157 3158 3158 3159 3160 3161 3162
3157 3156 3156 3154 3153 3154 3153 3152 3151 3150 3149 3149 3149 3147 3146 3145 3145 3145 3144 3145 3145 3146 3147 3147 3146 3146 3147 3147 3148 3148 3149 3150 3152 3152 3153 3154 3154 3154 3155 3156 3156 3157 3158
3155 3155 3154 3154 3153 3151 3151 3151 3149 3148 3148 3147 3146 3144 3142 3141 3141 3141 3141 3141 3142 3142 3143 3144 3144 3144 3143 3144 3145 3146 3147 3147 3147 3149 3149 3150 3151 3152 3152 3152 3152 3152 3153
3153 3153 3152 3152 3151 3149 3149 3148 3147 3146 3145 3145 3143 3139 3137 3136 3135 3136 3136 3137 3138 3138 3138 3139 3140 3141 3141 3141 3142 3144 3145 3145 3145 3145 3146 3147 3148 3148 3148 3148 3149 3149 3150
3150 3150 3150 3150 3149 3149 3147 3146 3145 3146 3145 3143 3139 3133 3131 3131 3130 3131 3132 3133 3134 3135 3135 3136 3136 3137 3138 3139 3140 3141 3142 3142 3142 3142 3143 3143 3144 3144 3144 3144 3145 3145 3145
3147 3147 3147 3147 3147 3146 3146 3146 3145 3145 3143 3141 3137 3132 3127 3126 3124 3125 3126 3127 3129 3131 3131 3132 3133 3133 3134 3135 3136 3136 3137 3138 3139 3138 3138 3138 3138 3139 3140 3141 3140 3141 3141
3145 3145 3145 3145 3144 3144 3143 3143 3143 3143 3141 3138 3134 3130 3123 3122 3119 3120 3122 3123 3124 3125 3127 3128 3129 3130 3130 3130 3132 3133 3133 3133 3134 3134 3134 3134 3134 3134 3135 3135 3136 3137 3137
3137 3140 3142 3142 3142 3141 3140 3141 3140 3139 3138 3135 3132 3128 3123 3120 3115 3117 3118 3120 3120 3121 3122 3123 3124 3125 3126 3127 3128 3129 3129 3129 3129 3129 3130 3130 3130 3130 3130 3131 3131 3132 3133
3128 3134 3137 3140 3140 3139 3138 3137 3136 3135 3133 3131 3129 3125 3123 3119 3116 3114 3114 3115 3117 3117 3118 3118 3120 3122 3123 3123 3124 3125 3125 3125 3125 3124 3125 3125 3125 3126 3126 3127 3127 3127 3127
3123 3126 3132 3135 3136 3136 3134 3133 3132 3130 3129 3128 3126 3123 3121 3119 3116 3114 3113 3113 3114 3115 3116 3115 3116 3118 3119 3120 3119 3120 3120 3120 3120 3121 3120 3120 3120 3121 3121 3121 3121 3121 3121
3116 3119 3122 3127 3129 3130 3129 3128 3128 3126 3124 3123 3122 3121 3118 3117 3114 3112 3111 3110 3110 3111 3111 3112 3113 3113 3113 3115 3115 3115 3115 3116 3116 3116 3116 3115 3115 3114 3114 3115 3115 3115 3115
3110 3111 3110 3115 3121 3124 3123 3123 3123 3121 3120 3119 3118 3117 3115 3113 3111 3108 3106 3106 3105 3106 3107 3107 3108 3109 3110 3110 3110 3111 3112 3112 3112 3111 3110 3110 3109 3109 3110 3109 3109 3108 3107
3105 3104 3105 3110 3115 3115 3116 3116 3117 3116 3115 3115 3113 3113 3111 3108 3107 3105 3103 3103 3102 3102 3101 3101 3102 3104 3104 3104 3106 3105 3106 3105 3105 3105 3104 3103 3103 3101 3100 3101 3101 3100 3100
3096 3097 3098 3103 3109 3108 3109 3110 3111 3110 3110 3109 3108 3107 3105 3102 3100 3099 3097 3096 3097 3097 3096 3096 3096 3096 3097 3097 3097 3098 3097 3097 3096 3096 3093 3093 3094 3093 3094 3093 3092 3091 3091
3087 3089 3094 3099 3101 3102 3104 3104 3103 3103 3103 3103 3102 3100 3099 3096 3095 3093 3091 3089 3088 3088 3088 3089 3089 3090 3088 3088 3088 3089 3089 3088 3088 3089 3082 3084 3084 3083 3085 3084 3084 3084 3082
3081 3085 3089 3093 3094 3095 3097 3097 3098 3098 3096 3095 3095 3094 3093 3090 3089 3087 3085 3082 3081 3080 3079 3080 3080 3081 3080 3079 3079 3078 3079 3079 3077 3077 3076 3074 3073 3072 3070 3071 3073 3073 3074
3074 3078 3082 3086 3089 3090 3091 3091 3092 3091 3091 3091 3090 3088 3088 3086 3084 3082 3081 3080 3078 3075 3074 3073 3073 3071 3070 3070 3069 3068 3067 3069 3067 3067 3065 3063 3063 3060 3062 3060 3062 3062 3062
3072 3074 3076 3081 3083 3083 3084 3085 3087 3089 3087 3088 3087 3085 3080 3081 3079 3076 3076 3077 3073 3071 3069 3068 3067 3066 3064 3062 3061 3060 3059 3058 3057 3056 3055 3054 3054 3052 3052 3053 3052 3052 3051
3071 3074 3077 3078 3079 3080 3079 3080 3082 3084 3083 3083 3080 3078 3077 3076 3075 3074 3073 3071 3068 3065 3064 3062 3061 3060 3058 3055 3052 3053 3053 3051 3050 3047 3046 3045 3045 3045 3044 3043 3042 3042 3042
3070 3071 3071 3073 3072 3072 3073 3074 3074 3075 3075 3074 3073 3071 3070 3070 3069 3069 3068 3065 3061 3059 3056 3055 3054 3053 3049 3048 3047 3045 3044 3043 3042 3039 3037 3035 3034 3033 3033 3033 3031 3030 3026
3063 3064 3065 3065 3065 3065 3066 3067 3068 3069 3068 3068 3068 3066 3065 3064 3062 3062 3060 3056 3053 3051 3049 3047 3045 3044 3042 3040 3039 3037 3035 3033 3031 3031 3028 3026 3025 3024 3022 3020 3019 3017 3015
3057 3057 3057 3057 3058 3059 3061 3062 3062 3063 3062 3062 3062 3060 3059 3057 3057 3055 3053 3050 3047 3044 3041 3040 3038 3036 3034 3032 3030 3028 3025 3023 3022 3021 3018 3016 3014 3012 3011 3010 3008 3006 3005
3053 3053 3053 3052 3052 3053 3053 3054 3055 3057 3057 3057 3057 3055 3054 3052 3050 3049 3046 3043 3040 3036 3035 3032 3028 3027 3025 3023 3022 3020 3017 3014 3012 3009 3008 3005 3001 3000 2999 2997 2995 2993 2991
3050 3050 3050 3050 3051 3051 3052 3053 3054 3053 3053 3052 3052 3050 3048 3046 3044 3042 3040 3037 3033 3031 3029 3026 3023 3021 3020 3018 3016 3012 3010 3007 3004 3001 2997 2995 2992 2989 2987 2985 2983 2980 2978